AirNav   Everest Fuels
 
 537 users online  

19MI Mecosta County Medical Center Heliport
Big Rapids, Michigan, USA

GOING TO BIG RAPIDS?


FAA INFORMATION EFFECTIVE 18 JUNE 2020

Location

FAA Identifier: 19MI
Lat/Long: 43-41-41.5820N 085-28-25.6590W
43-41.693033N 085-28.427650W
43.6948839,-85.4737942
(estimated)
Elevation: 911 ft. / 278 m (estimated)
Variation: 04W (1985)
Time zone: UTC -4 (UTC -5 during Standard Time)
Zip code: 49307

Heliport Operations

Heliport use: Private use, MEDICAL USE.
Activation date: 07/1989
Control tower: no
ARTCC: MINNEAPOLIS CENTER
FSS: LANSING FLIGHT SERVICE STATION
Attendance: UNATNDD
Wind indicator: yes
Segmented circle: no

Heliport Communications

WX AWOS-3P at RQB (2.1 nm NW): 125.875 (231-796-0884)

Nearby radio navigation aids

VOR radial/distance  VOR name  Freq  Var
HICr057/12.8WHITE CLOUD VOR/DME117.6001W
MOPr283/32.3MOUNT PLEASANT VOR/DME110.6005W

Heliport Services

Runway Information

Helipad H1

Dimensions: 60 x 60 ft. / 18 x 18 m
Surface: concrete
Runway edge lights: PERI
Latitude: 43-41.693033N
Longitude: 085-28.427650W
Elevation: 911.0 ft.
Traffic pattern: leftleft

Heliport Ownership and Management from official FAA records

Ownership: Privately-owned
Owner: SPECTRUM HEALTH BIG RAPIDS HOSPITAL
605 OAK ST.
BIG RAPIDS, MI 49307
Phone 213-796-8691
Manager: GENE MAGOON
605 OAK ST
BIG RAPIDS, MI 49307
Phone 616-788-9836

Additional Remarks

FOR CD CTC MINNEAPOLIS ARTCC AT 651-463-5588.

Instrument Procedures

There are no published instrument procedures at 19MI.

Some nearby airports with instrument procedures:

KRQB - Roben-Hood Airport (2 nm NW)
13C - Lakeview Airport-Griffith Field (17 nm SE)
7D3 - Baldwin Municipal Airport (19 nm NW)
KFFX - Fremont Municipal Airport (27 nm SW)
KMOP - Mount Pleasant Municipal Airport (32 nm E)
 
Loc | Ops | Rwys | IFR | FBO | Links
Com | Nav | Svcs | Stats | Notes
Area around 19MI (Mecosta County Medical Center Heliport)
 
Road maps at: MapQuest Bing Google
 
Aerial photo
No photo
 
Sectional chart

 
Airport distance calculator
Flying to Mecosta County Medical Center Heliport? Find the distance to fly.

From to 19MI

Sunrise and sunset
Times for 11-Jul-2020
 Local
(UTC-4)
 Zulu
(UTC)
Morning civil twilight05:3709:37
Sunrise06:1210:12
Sunset21:2201:22
Evening civil twilight21:5701:57

Current date and time
Zulu (UTC)  11-Jul-2020 04:49:56
Local (UTC-4)  11-Jul-2020 00:49:56
 
METAR
KRQB 
2nm NW 
110435Z AUTO 29007KT 10SM CLR 19/16 A2984 RMK AO2 T01870157
TAF
KMKG 
46nm SW 
102051Z 1021/1118 30014G22KT P6SM FEW017 SCT028 BKN035 FM102200 32014KT P6SM BKN100 FM110100 32007KT P6SM SCT040 FM111200 31006KT P6SM FEW250
KMBL 
48nm NW 
102225Z 1022/1118 31010G18KT P6SM OVC016 FM110100 34009KT P6SM BKN200 FM111000 30006KT P6SM FEW250
KGRR 
49nm S 
101958Z 1020/1118 33009KT P6SM TS BKN015CB BKN023 BKN050 FM110100 32011KT P6SM BKN035 FM110900 31005KT 3SM BR FEW050 FM111200 31005KT P6SM FEW120
NOTAMs
Click for the latest NOTAMs
NOTAMs are issued by the DoD/FAA and will open in a separate window not controlled by AirNav.

 

 
 

Would you like to see your business listed on this page?

 If your business provides an interesting product or service to pilots, flight crews, aircraft, or users of the Mecosta County Medical Center Heliport, you should consider listing it here.  To start the listing process, click on the button below
 
Add a business
 

Other Pages about Mecosta County Medical Center Heliport

Update a link
 
Copyright © AirNav, LLC. All rights reserved. Privacy Policy  Contact